Voltar ao catálogo

DELTA 1 DEB

AtivoSSO
NORAD 13531·DEBRIS·🇺🇸 United States

Lançado Jul 29, 1976 de Vandenberg Space Force Base

Loading…

Próximas Passagens (próximas 24 horas)

TLE

AtualizadoSource: Space-Track

Época: Sep 14, 2026, 10:36 UTC

1 13531U 76077ED  26257.44202812 -.00000022  00000-0  23305-3 0  9996
2 13531 102.7646 235.9780 0142332  14.0781 139.1914 12.17165586966912

Acompanhe DELTA 1 DEB em tempo real com AllMySat

Download on the App Store